WetterOnline ( http://www.wetteronline.de )

Wetter aktuell Hittbergen

Aktuelles Wetter: Boizenburg (46m)

6-stündlich | Neueste Meldungen
Ortszeit Temperatur Wetter
Do, 19.07. 2:00 15.1° C wolkig
Mi, 18.07. 20:00 23.2° C wolkenlos
Mi, 18.07. 14:00 23.6° C bewölkt
Mi, 18.07. 8:00 17.0° C wolkig
Mi, 18.07. 2:00 19.7° C bedeckt
Di, 17.07. 20:00 28.6° C wolkenlos
Di, 17.07. 14:00 29.4° C wolkenlos
Di, 17.07. 8:00 18.9° C wolkenlos
Ortszeit Temperatur Wetter
Do, 19.07. 2:00 15.1° C wolkig
Do, 19.07. 1:40 15.1° C wolkig
Do, 19.07. 1:30 15.4° C leicht bewölkt
Do, 19.07. 1:20 15.4° C leicht bewölkt
Do, 19.07. 1:10 15.5° C leicht bewölkt
Do, 19.07. 1:00 15.9° C wolkig
Do, 19.07. 0:50 15.9° C bedeckt
Do, 19.07. 0:30 16.4° C wolkig
Do, 19.07. 0:00 16.8° C wolkig
Mi, 18.07. 23:30 17.4° C wolkig
Mi, 18.07. 23:00 17.9° C wolkig
Ortszeit Relative Feuchte Sichtweite
Do, 19.07. 2:00 82% 40 km
Mi, 18.07. 20:00 43% 60 km
Mi, 18.07. 14:00 51% 40 km
Mi, 18.07. 8:00 83% 13 km
Mi, 18.07. 2:00 67% 16 km
Di, 17.07. 20:00 32% 45 km
Di, 17.07. 14:00 32% 30 km
Di, 17.07. 8:00 78% 13 km
Ortszeit Relative Feuchte Sichtweite
Do, 19.07. 2:00 82% 40 km
Do, 19.07. 1:40 81% -
Do, 19.07. 1:30 80% 35 km
Do, 19.07. 1:20 80% -
Do, 19.07. 1:10 80% -
Do, 19.07. 1:00 78% 35 km
Do, 19.07. 0:50 78% -
Do, 19.07. 0:30 76% 40 km
Do, 19.07. 0:00 73% 40 km
Mi, 18.07. 23:30 71% 40 km
Mi, 18.07. 23:00 70% 40 km
Ortszeit Niederschlagsmenge Niederschlagsart
Do, 19.07. 2:00 0.0 l/m2 in 6 Std. -
Mi, 18.07. 20:00 0.0 l/m2 in 12 Std. -
Mi, 18.07. 14:00 0.0 l/m2 in 6 Std. -
Mi, 18.07. 8:00 0.0 l/m2 in 12 Std. -
Mi, 18.07. 2:00 0.0 l/m2 in 6 Std. -
Di, 17.07. 20:00 0.0 l/m2 in 12 Std. -
Di, 17.07. 14:00 0.0 l/m2 in 6 Std. -
Di, 17.07. 8:00 0.0 l/m2 in 12 Std. -
Ortszeit Niederschlagsmenge Niederschlagsart
Do, 19.07. 2:00 0.0 l/m2 in 1 Std. -
Do, 19.07. 1:40 keine Meldung -
Do, 19.07. 1:30 0.0 l/m2 in 1 Std. -
Do, 19.07. 1:20 keine Meldung -
Do, 19.07. 1:10 keine Meldung -
Do, 19.07. 1:00 0.0 l/m2 in 1 Std. -
Do, 19.07. 0:50 keine Meldung -
Do, 19.07. 0:30 0.0 l/m2 in 1 Std. -
Do, 19.07. 0:00 0.0 l/m2 in 1 Std. -
Mi, 18.07. 23:30 0.0 l/m2 in 1 Std. -
Mi, 18.07. 23:00 0.0 l/m2 in 1 Std. -
Ortszeit Stärke Spitze Richtung
km/h Bft. km/h Grad Sektor
Do, 19.07. 2:00 7 2 29 290° W
Mi, 18.07. 20:00 13 3 35 310° NW
Mi, 18.07. 14:00 20 4 35 250° W
Mi, 18.07. 8:00 13 3 28 260° W
Mi, 18.07. 2:00 9 2 31 310° NW
Di, 17.07. 20:00 11 2 29 310° NW
Di, 17.07. 14:00 11 2 29 340° N
Di, 17.07. 8:00 4 1 14 330° NW
Ortszeit Stärke Spitze Richtung
km/h Bft. km/h Grad Sektor
Do, 19.07. 2:00 7 2 18 290° W
Do, 19.07. 1:40 7 2 - 300° NW
Do, 19.07. 1:30 7 2 18 290° W
Do, 19.07. 1:20 7 2 - 290° W
Do, 19.07. 1:10 9 2 - 290° W
Do, 19.07. 1:00 7 2 18 300° NW
Do, 19.07. 0:50 7 2 - 300° NW
Do, 19.07. 0:30 9 2 17 300° NW
Do, 19.07. 0:00 7 2 20 300° NW
Mi, 18.07. 23:30 9 2 17 290° W
Mi, 18.07. 23:00 11 2 18 280° W
Ortszeit Untergrenze Bedeckung Gattung
total tief tief mittel hoch
Do, 19.07. 2:00 9000 m 8/8 0/8 - - -
Mi, 18.07. 20:00 - 0/8 0/8 - - -
Mi, 18.07. 14:00 1140 m 7/8 7/8 - - -
Mi, 18.07. 8:00 390 m 7/8 2/8 - - -
Mi, 18.07. 2:00 3600 m 8/8 8/8 - - -
Di, 17.07. 20:00 - 0/8 0/8 - - -
Di, 17.07. 14:00 - 0/8 0/8 - - -
Di, 17.07. 8:00 - 0/8 0/8 - - -
Ortszeit Bedeckungsgrad in Achtel und Wolkenuntergrenze
Do, 19.07. 2:00 5(9000m) 8(10500m)
Do, 19.07. 1:40 3(9000m) 7(10500m)
Do, 19.07. 1:30 3(10500m) 6(10500m)
Do, 19.07. 1:20 3(10500m)
Do, 19.07. 1:10 2(3600m)
Do, 19.07. 1:00 3(3600m)
Do, 19.07. 0:50 9 9 9
Do, 19.07. 0:30 7(10500m) 4(10500m)
Do, 19.07. 0:00 8(10500m)
Mi, 18.07. 23:30 7(10500m)
Mi, 18.07. 23:00 7(10500m) 5(10500m)
Ortszeit Luftdruck NN (hPa) Tendenz (hPa in 3 Std.)
Do, 19.07. 2:00 1018 + 0,7
Mi, 18.07. 20:00 1017 + 0,2
Mi, 18.07. 14:00 1016 0,0
Mi, 18.07. 8:00 1016 + 0,9
Mi, 18.07. 2:00 1015 + 1,1
Di, 17.07. 20:00 1012 0,0
Di, 17.07. 14:00 1013 - 0,4
Di, 17.07. 8:00 1013 + 0,3
Ortszeit Luftdruck NN (hPa) Tendenz (hPa in 3 Std.)
Do, 19.07. 2:00 1018 + 0,7
Do, 19.07. 1:40 1018 keine Meldung
Do, 19.07. 1:30 1018 + 0,8
Do, 19.07. 1:20 1018 keine Meldung
Do, 19.07. 1:10 1018 keine Meldung
Do, 19.07. 1:00 1018 + 0,8
Do, 19.07. 0:50 1018 keine Meldung
Do, 19.07. 0:30 1018 + 1,0
Do, 19.07. 0:00 1018 + 0,9
Mi, 18.07. 23:30 1018 + 0,9
Mi, 18.07. 23:00 1018 + 0,9
Ortszeit Schneehöhe (cm)
Do, 19.07. 2:00 -
Mi, 18.07. 20:00 -
Mi, 18.07. 14:00 -
Mi, 18.07. 8:00 -
Mi, 18.07. 2:00 -
Di, 17.07. 20:00 -
Di, 17.07. 14:00 -
Di, 17.07. 8:00 -
Ortszeit Schneehöhe (cm)
Do, 19.07. 2:00 -
Do, 19.07. 1:40 -
Do, 19.07. 1:30 -
Do, 19.07. 1:20 -
Do, 19.07. 1:10 -
Do, 19.07. 1:00 -
Do, 19.07. 0:50 -
Do, 19.07. 0:30 -
Do, 19.07. 0:00 -
Mi, 18.07. 23:30 -
Mi, 18.07. 23:00 -
Link zu dieser Seite / Seite empfehlen

Das Wetter in ...